Time,TemperatureF,DewpointF,PressureIn,WindDirection,WindDirectionDegrees,WindSpeedMPH,WindSpeedGustMPH,Humidity,HourlyPrecipIn,Conditions,Clouds,dailyrainin,SoftwareType,DateUTC
2013-03-05 00:01:00,25.0,25.0,-100.00,NNE,20,6.0,7.0,99,0.00,,,0.00,,2013-03-05 06:01:00,
2013-03-05 00:11:00,25.0,25.0,-100.00,NNE,20,4.0,7.0,99,0.00,,,0.00,,2013-03-05 06:11:00,
2013-03-05 00:22:00,25.0,25.0,-100.00,NNE,25,5.0,6.0,99,0.00,,,0.00,,2013-03-05 06:22:00,
2013-03-05 00:31:00,25.0,25.0,-100.00,NNE,25,4.0,6.0,99,0.00,,,0.00,,2013-03-05 06:31:00,
2013-03-05 00:41:00,25.0,25.0,-100.00,NNE,30,4.0,6.0,99,0.00,,,0.00,,2013-03-05 06:41:00,
2013-03-05 00:52:00,25.0,25.0,-100.00,NNE,30,4.0,6.0,99,0.00,,,0.00,,2013-03-05 06:52:00,
2013-03-05 01:01:00,25.0,25.0,-100.00,NNE,20,4.0,4.0,99,0.00,,,0.00,,2013-03-05 07:01:00,
2013-03-05 01:11:00,25.0,25.0,-100.00,NNE,25,4.0,4.0,99,0.00,,,0.00,,2013-03-05 07:11:00,
2013-03-05 01:21:00,25.0,25.0,-100.00,NNE,30,4.0,5.0,99,0.00,,,0.00,,2013-03-05 07:21:00,
2013-03-05 01:31:00,25.0,25.0,-100.00,NNE,25,4.0,5.0,99,0.00,,,0.00,,2013-03-05 07:31:00,
2013-03-05 01:41:00,25.0,25.0,-100.00,NNE,20,4.0,4.0,99,0.00,,,0.00,,2013-03-05 07:41:00,
2013-03-05 01:51:00,25.0,25.0,-100.00,NNE,25,3.0,4.0,99,0.00,,,0.00,,2013-03-05 07:51:00,
2013-03-05 02:02:00,25.0,25.0,-100.00,North,10,2.0,4.0,99,0.00,,,0.00,,2013-03-05 08:02:00,
2013-03-05 02:11:00,25.0,25.0,-100.00,NNE,20,2.0,2.0,99,0.00,,,0.00,,2013-03-05 08:11:00,
2013-03-05 02:21:00,25.0,25.0,-100.00,NNE,30,2.0,4.0,99,0.00,,,0.00,,2013-03-05 08:21:00,
2013-03-05 02:31:00,25.0,25.0,-100.00,NNE,30,2.0,3.0,99,0.00,,,0.00,,2013-03-05 08:31:00,
2013-03-05 02:41:00,25.0,25.0,-100.00,NE,35,1.0,2.0,99,0.00,,,0.00,,2013-03-05 08:41:00,
2013-03-05 02:52:00,25.0,25.0,-100.00,NNE,15,2.0,2.0,99,0.00,,,0.00,,2013-03-05 08:52:00,
2013-03-05 03:01:00,25.0,25.0,-100.00,NNE,15,1.0,2.0,99,0.00,,,0.00,,2013-03-05 09:01:00,
2013-03-05 03:11:00,25.0,25.0,-100.00,NNE,15,1.0,1.0,99,0.00,,,0.00,,2013-03-05 09:11:00,
2013-03-05 03:21:00,25.0,25.0,-100.00,NNE,15,0.0,1.0,99,0.00,,,0.00,,2013-03-05 09:21:00,
2013-03-05 03:31:00,25.0,25.0,-100.00,NNE,15,0.0,1.0,99,0.00,,,0.00,,2013-03-05 09:31:00,
2013-03-05 03:42:00,25.0,25.0,-100.00,NNE,15,0.0,0.0,99,0.00,,,0.00,,2013-03-05 09:42:00,
2013-03-05 03:52:00,25.0,25.0,-100.00,North,355,0.0,0.0,99,0.00,,,0.00,,2013-03-05 09:52:00,
2013-03-05 06:11:00,24.0,23.0,-100.00,NE,35,0.0,0.0,99,0.00,,,0.00,,2013-03-05 12:11:00,
2013-03-05 06:22:00,24.0,23.0,-100.00,NE,50,0.0,0.0,99,0.00,,,0.00,,2013-03-05 12:22:00,
2013-03-05 06:32:00,24.0,23.0,-100.00,NNE,25,0.0,0.0,99,0.00,,,0.00,,2013-03-05 12:32:00,
2013-03-05 06:42:00,24.0,23.0,-100.00,NNE,15,0.0,0.0,99,0.00,,,0.00,,2013-03-05 12:42:00,
2013-03-05 06:52:00,24.0,23.0,-100.00,North,5,0.0,0.0,99,0.00,,,0.00,,2013-03-05 12:52:00,
2013-03-05 07:02:00,24.0,23.0,-100.00,North,0,0.0,0.0,99,0.00,,,0.00,,2013-03-05 13:02:00,
2013-03-05 07:11:00,24.0,23.0,-100.00,NNW,345,0.0,0.0,99,0.00,,,0.00,,2013-03-05 13:11:00,
2013-03-05 07:32:00,25.0,25.0,-100.00,North,0,0.0,0.0,99,0.00,,,0.00,,2013-03-05 13:32:00,
2013-03-05 07:42:00,25.0,25.0,-100.00,ESE,115,0.0,0.0,99,0.00,,,0.00,,2013-03-05 13:42:00,
2013-03-05 07:52:00,25.0,25.0,-100.00,South,180,0.0,0.0,99,0.00,,,0.00,,2013-03-05 13:52:00,
2013-03-05 08:02:00,25.0,25.0,-100.00,South,180,0.0,0.0,99,0.00,,,0.00,,2013-03-05 14:02:00,
2013-03-05 08:11:00,25.0,25.0,-100.00,South,180,0.0,0.0,99,0.00,,,0.00,,2013-03-05 14:11:00,
2013-03-05 08:21:00,25.0,25.0,-100.00,SSW,195,0.0,0.0,99,0.00,,,0.00,,2013-03-05 14:21:00,
2013-03-05 08:32:00,26.0,25.0,-100.00,South,185,0.0,0.0,99,0.00,,,0.00,,2013-03-05 14:32:00,
2013-03-05 08:42:00,26.0,25.0,-100.00,South,180,0.0,0.0,99,0.00,,,0.00,,2013-03-05 14:42:00,
2013-03-05 08:52:00,26.0,25.0,-100.00,South,180,0.0,0.0,99,0.00,,,0.00,,2013-03-05 14:52:00,
2013-03-05 09:32:00,27.0,27.0,-100.00,WSW,240,4.0,8.0,99,0.00,,,0.00,,2013-03-05 15:32:00,
2013-03-05 09:42:00,27.0,27.0,-100.00,WSW,255,7.0,11.0,99,0.00,,,0.00,,2013-03-05 15:42:00,
2013-03-05 09:51:00,27.0,27.0,-100.00,WSW,250,6.0,12.0,99,0.00,,,0.00,,2013-03-05 15:51:00,
2013-03-05 10:01:00,27.0,27.0,-100.00,WSW,245,9.0,12.0,99,0.00,,,0.00,,2013-03-05 16:01:00,
2013-03-05 10:11:00,28.0,27.0,-100.00,West,260,10.0,15.0,99,0.00,,,0.00,,2013-03-05 16:11:00,
2013-03-05 10:32:00,28.0,27.0,-100.00,West,280,11.0,12.0,98,0.00,,,0.00,,2013-03-05 16:32:00,
2013-03-05 10:42:00,28.0,28.0,-100.00,West,275,7.0,14.0,98,0.00,,,0.00,,2013-03-05 16:42:00,
2013-03-05 10:51:00,29.0,28.0,-100.00,West,275,8.0,15.0,96,0.00,,,0.00,,2013-03-05 16:51:00,
2013-03-05 11:01:00,28.0,27.0,-100.00,West,280,11.0,15.0,95,0.00,,,0.00,,2013-03-05 17:01:00,
2013-03-05 11:11:00,28.0,27.0,-100.00,West,280,11.0,14.0,95,0.00,,,0.00,,2013-03-05 17:11:00,
2013-03-05 11:21:00,29.0,27.0,-100.00,WNW,290,9.0,14.0,93,0.00,,,0.00,,2013-03-05 17:21:00,
2013-03-05 11:32:00,29.0,27.0,-100.00,WNW,300,6.0,12.0,94,0.00,,,0.00,,2013-03-05 17:32:00,
2013-03-05 11:41:00,28.0,27.0,-100.00,NW,325,7.0,11.0,94,0.00,,,0.00,,2013-03-05 17:41:00,
2013-03-05 11:52:00,28.0,27.0,-100.00,NW,310,7.0,10.0,91,0.00,,,0.00,,2013-03-05 17:52:00,
2013-03-05 12:01:00,28.0,27.0,-100.00,NW,315,9.0,12.0,90,0.00,,,0.00,,2013-03-05 18:01:00,
2013-03-05 12:11:00,29.0,27.0,-100.00,NW,310,9.0,12.0,89,0.00,,,0.00,,2013-03-05 18:11:00,
2013-03-05 12:21:00,29.0,25.0,-100.00,NW,320,9.0,12.0,87,0.00,,,0.00,,2013-03-05 18:21:00,
2013-03-05 12:32:00,28.0,25.0,-100.00,NW,310,11.0,14.0,87,0.00,,,0.00,,2013-03-05 18:32:00,
2013-03-05 12:42:00,29.0,25.0,-100.00,NW,310,10.0,14.0,86,0.00,,,0.00,,2013-03-05 18:42:00,
2013-03-05 12:52:00,29.0,25.0,-100.00,WNW,290,10.0,14.0,84,0.00,,,0.00,,2013-03-05 18:52:00,
2013-03-05 13:01:00,28.0,25.0,-100.00,NW,320,11.0,16.0,84,0.00,,,0.00,,2013-03-05 19:01:00,
2013-03-05 13:11:00,29.0,25.0,-100.00,WNW,285,10.0,16.0,82,0.00,,,0.00,,2013-03-05 19:11:00,
2013-03-05 13:21:00,29.0,25.0,-100.00,WNW,290,12.0,17.0,82,0.00,,,0.00,,2013-03-05 19:21:00,
2013-03-05 13:32:00,29.0,23.0,-100.00,WNW,300,13.0,17.0,81,0.00,,,0.00,,2013-03-05 19:32:00,
2013-03-05 13:42:00,29.0,25.0,-100.00,WNW,290,11.0,16.0,82,0.00,,,0.00,,2013-03-05 19:42:00,
2013-03-05 13:51:00,29.0,25.0,-100.00,WNW,300,9.0,17.0,82,0.00,,,0.00,,2013-03-05 19:51:00,
2013-03-05 14:01:00,29.0,25.0,-100.00,WNW,290,14.0,19.0,81,0.00,,,0.00,,2013-03-05 20:01:00,
2013-03-05 14:11:00,29.0,23.0,-100.00,WNW,290,15.0,19.0,78,0.00,,,0.00,,2013-03-05 20:11:00,
2013-03-05 14:21:00,29.0,23.0,-100.00,West,275,12.0,20.0,79,0.00,,,0.00,,2013-03-05 20:21:00,
2013-03-05 14:32:00,28.0,23.0,-100.00,WNW,290,12.0,19.0,83,0.00,,,0.00,,2013-03-05 20:32:00,
2013-03-05 14:41:00,29.0,23.0,-100.00,West,270,11.0,17.0,78,0.00,,,0.00,,2013-03-05 20:41:00,
2013-03-05 14:52:00,28.0,23.0,-100.00,WNW,285,15.0,22.0,78,0.00,,,0.00,,2013-03-05 20:52:00,
2013-03-05 15:02:00,29.0,23.0,-100.00,WNW,285,10.0,18.0,80,0.00,,,0.00,,2013-03-05 21:02:00,
2013-03-05 15:11:00,28.0,23.0,-100.00,WNW,285,12.0,18.0,81,0.00,,,0.00,,2013-03-05 21:11:00,
2013-03-05 15:21:00,28.0,23.0,-100.00,West,280,13.0,19.0,79,0.00,,,0.00,,2013-03-05 21:21:00,
2013-03-05 15:31:00,28.0,23.0,-100.00,West,265,12.0,21.0,78,0.00,,,0.00,,2013-03-05 21:31:00,
2013-03-05 15:41:00,29.0,23.0,-100.00,West,275,9.0,20.0,77,0.00,,,0.00,,2013-03-05 21:41:00,
2013-03-05 15:52:00,28.0,23.0,-100.00,West,275,12.0,22.0,78,0.00,,,0.00,,2013-03-05 21:52:00,
2013-03-05 16:01:00,27.0,23.0,-100.00,West,275,15.0,20.0,80,0.00,,,0.00,,2013-03-05 22:01:00,
2013-03-05 16:11:00,27.0,23.0,-100.00,West,265,11.0,18.0,81,0.00,,,0.00,,2013-03-05 22:11:00,
2013-03-05 16:21:00,27.0,23.0,-100.00,West,275,10.0,18.0,81,0.00,,,0.00,,2013-03-05 22:21:00,
2013-03-05 16:32:00,27.0,23.0,-100.00,West,275,12.0,16.0,82,0.00,,,0.00,,2013-03-05 22:32:00,
2013-03-05 16:41:00,27.0,23.0,-100.00,West,260,11.0,22.0,81,0.00,,,0.00,,2013-03-05 22:41:00,
2013-03-05 16:52:00,27.0,23.0,-100.00,WSW,255,11.0,18.0,81,0.00,,,0.00,,2013-03-05 22:52:00,
2013-03-05 17:01:00,27.0,23.0,-100.00,West,260,13.0,18.0,83,0.00,,,0.00,,2013-03-05 23:01:00,
2013-03-05 17:11:00,27.0,23.0,-100.00,WNW,285,12.0,21.0,83,0.00,,,0.00,,2013-03-05 23:11:00,
2013-03-05 17:21:00,27.0,23.0,-100.00,WSW,250,14.0,26.0,84,0.00,,,0.00,,2013-03-05 23:21:00,
2013-03-05 17:32:00,27.0,23.0,-100.00,West,275,13.0,20.0,84,0.00,,,0.00,,2013-03-05 23:32:00,
2013-03-05 17:41:00,26.0,23.0,-100.00,West,260,13.0,19.0,85,0.00,,,0.00,,2013-03-05 23:41:00,
2013-03-05 17:52:00,26.0,23.0,-100.00,West,260,10.0,17.0,88,0.00,,,0.00,,2013-03-05 23:52:00,
2013-03-05 18:01:00,26.0,23.0,-100.00,WSW,250,11.0,17.0,89,0.00,,,0.00,,2013-03-06 00:01:00,
2013-03-05 18:11:00,26.0,23.0,-100.00,West,260,9.0,17.0,91,0.00,,,0.00,,2013-03-06 00:11:00,
2013-03-05 18:21:00,26.0,25.0,-100.00,West,260,10.0,18.0,92,0.00,,,0.00,,2013-03-06 00:21:00,
2013-03-05 18:32:00,26.0,23.0,-100.00,WSW,250,11.0,18.0,93,0.00,,,0.00,,2013-03-06 00:32:00,
2013-03-05 18:41:00,25.0,25.0,-100.00,West,260,10.0,19.0,94,0.00,,,0.00,,2013-03-06 00:41:00,
2013-03-05 18:51:00,25.0,23.0,-100.00,WSW,250,13.0,17.0,94,0.00,,,0.00,,2013-03-06 00:51:00,
2013-03-05 19:01:00,25.0,25.0,-100.00,West,260,12.0,20.0,94,0.00,,,0.00,,2013-03-06 01:01:00,
2013-03-05 19:11:00,25.0,25.0,-100.00,West,260,9.0,20.0,94,0.00,,,0.00,,2013-03-06 01:11:00,
2013-03-05 19:21:00,25.0,25.0,-100.00,WSW,250,12.0,17.0,94,0.00,,,0.00,,2013-03-06 01:21:00,
2013-03-05 19:32:00,26.0,25.0,-100.00,West,260,11.0,17.0,95,0.00,,,0.00,,2013-03-06 01:32:00,
2013-03-05 19:41:00,26.0,25.0,-100.00,West,265,9.0,17.0,95,0.00,,,0.00,,2013-03-06 01:41:00,
2013-03-05 19:51:00,26.0,25.0,-100.00,WSW,255,12.0,17.0,95,0.00,,,0.00,,2013-03-06 01:51:00,
2013-03-05 20:01:00,26.0,25.0,-100.00,WSW,255,11.0,17.0,96,0.00,,,0.00,,2013-03-06 02:01:00,
2013-03-05 20:11:00,26.0,25.0,-100.00,WSW,255,11.0,17.0,97,0.00,,,0.00,,2013-03-06 02:11:00,
2013-03-05 20:21:00,26.0,25.0,-100.00,WSW,250,11.0,16.0,97,0.00,,,0.00,,2013-03-06 02:21:00,
2013-03-05 20:32:00,25.0,25.0,-100.00,WSW,245,11.0,16.0,97,0.00,,,0.00,,2013-03-06 02:32:00,
2013-03-05 20:41:00,25.0,25.0,-100.00,WSW,255,9.0,16.0,97,0.00,,,0.00,,2013-03-06 02:41:00,
2013-03-05 20:52:00,25.0,25.0,-100.00,WSW,255,7.0,15.0,96,0.00,,,0.00,,2013-03-06 02:52:00,
2013-03-05 21:01:00,25.0,23.0,-100.00,West,260,7.0,13.0,94,0.00,,,0.00,,2013-03-06 03:01:00,
2013-03-05 21:11:00,24.0,23.0,-100.00,WSW,255,7.0,14.0,93,0.00,,,0.00,,2013-03-06 03:11:00,
2013-03-05 21:21:00,24.0,23.0,-100.00,West,265,8.0,16.0,92,0.00,,,0.00,,2013-03-06 03:21:00,
2013-03-05 21:31:00,25.0,23.0,-100.00,West,270,8.0,13.0,92,0.00,,,0.00,,2013-03-06 03:31:00,
2013-03-05 21:41:00,24.0,23.0,-100.00,West,265,7.0,12.0,91,0.00,,,0.00,,2013-03-06 03:41:00,
2013-03-05 21:52:00,24.0,23.0,-100.00,West,265,9.0,13.0,91,0.00,,,0.00,,2013-03-06 03:52:00,
2013-03-05 22:02:00,25.0,23.0,-100.00,WSW,255,9.0,12.0,90,0.00,,,0.00,,2013-03-06 04:02:00,
2013-03-05 22:11:00,25.0,21.0,-100.00,West,270,6.0,11.0,90,0.00,,,0.00,,2013-03-06 04:11:00,
2013-03-05 22:21:00,25.0,21.0,-100.00,WSW,255,7.0,14.0,89,0.00,,,0.00,,2013-03-06 04:21:00,
2013-03-05 22:32:00,25.0,21.0,-100.00,WSW,250,7.0,11.0,87,0.00,,,0.00,,2013-03-06 04:32:00,
2013-03-05 22:41:00,25.0,21.0,-100.00,West,280,6.0,10.0,85,0.00,,,0.00,,2013-03-06 04:41:00,
2013-03-05 22:51:00,24.0,21.0,-100.00,West,275,6.0,11.0,84,0.00,,,0.00,,2013-03-06 04:51:00,
2013-03-05 23:01:00,24.0,21.0,-100.00,West,275,7.0,9.0,84,0.00,,,0.00,,2013-03-06 05:01:00,
2013-03-05 23:11:00,24.0,21.0,-100.00,WSW,255,7.0,9.0,84,0.00,,,0.00,,2013-03-06 05:11:00,
2013-03-05 23:22:00,24.0,21.0,-100.00,WSW,250,7.0,9.0,87,0.00,,,0.00,,2013-03-06 05:22:00,
2013-03-05 23:32:00,24.0,21.0,-100.00,WSW,255,8.0,12.0,88,0.00,,,0.00,,2013-03-06 05:32:00,
2013-03-05 23:42:00,24.0,21.0,-100.00,WSW,240,9.0,12.0,89,0.00,,,0.00,,2013-03-06 05:42:00,
2013-03-05 23:52:00,24.0,21.0,-100.00,West,260,7.0,13.0,90,0.00,,,0.00,,2013-03-06 05:52:00,